Burlington, WA

8:33 AM PDT on June 27, 2017 (GMT -0700)
Skagit Regional

Weather History for KBVS - February, 2014

Change the Weather History Date:

Saturday, February 22, 2014

  Actual Average Record
Temperature  
Mean Temperature 34 °F -  
Max Temperature 35 °F 51 °F 51 °F (2015)
Min Temperature 32 °F 35 °F 32 °F (2014)
Degree Days  
Heating Degree Days 32    
Moisture  
Dew Point 34 °F    
Average Humidity 100    
Maximum Humidity 100    
Minimum Humidity 93    
Precipitation  
Precipitation 0.37 in - - ()
Sea Level Pressure  
Sea Level Pressure 30.17 in    
Wind  
Wind Speed 5 mph (East)    
Max Wind Speed 9 mph    
Max Gust Speed -    
Visibility 6 miles    
Events      
Averages and records for this station are not official NWS values.
T = Trace of Precipitation, MM = Missing Value Source: NWS Daily Summary

Daily Weather History Graph

Daily Weather History Graph

Search for Another Location

Airport or City:

Trip Planner

Search our weather history database for the weather conditions in past years. The results will help you decide how hot, cold, wet, or windy it might be!

Date:

Astronomy

Feb. 22, 2014 Rise Set
Actual Time 7:04 AM PST 5:42 PM PST
Civil Twilight 6:32 AM PST 6:14 PM PST
Nautical Twilight 5:56 AM PST 6:50 PM PST
Astronomical Twilight 5:19 AM PST 7:27 PM PST
Moon 1:17 AM PST (2/22) 10:45 AM PST (2/22)
Length of Visible Light 11h 42m
Length of Day
10h 38m
Waning Gibbous, 49% of the Moon is Illuminated
Feb 22
Waning Gibbous
Mar 1
New
Mar 8
First Quarter
Mar 16
Full
Mar 23
Last Quarter

Hourly Weather History & Observations

Time (PST) Temp. Windchill Dew Point Humidity Pressure Visibility Wind Dir Wind Speed Gust Speed Precip Events Conditions
12:15 AM 32.0 °F - 32.0 °F 100% 30.26 in 10.0 mi Calm Calm - 0.00 in   Partly Cloudy
12:35 AM 33.8 °F 27.7 °F 33.8 °F 100% 30.26 in 10.0 mi NE 6.9 mph - 0.00 in   Mostly Cloudy
12:55 AM 33.8 °F 27.0 °F 33.8 °F 100% 30.26 in 10.0 mi NE 8.1 mph - 0.00 in   Partly Cloudy
1:15 AM 33.8 °F 27.0 °F 33.8 °F 100% 30.25 in 10.0 mi NE 8.1 mph - 0.00 in   Clear
1:35 AM 33.8 °F 27.7 °F 33.8 °F 100% 30.25 in 10.0 mi NE 6.9 mph - 0.00 in   Mostly Cloudy
1:55 AM 33.8 °F 27.7 °F 33.8 °F 100% 30.25 in 10.0 mi ENE 6.9 mph - 0.00 in   Overcast
2:15 AM 33.8 °F 29.6 °F 33.8 °F 100% 30.25 in 10.0 mi NE 4.6 mph - 0.00 in   Mostly Cloudy
2:35 AM 33.8 °F 28.6 °F 33.8 °F 100% 30.25 in 10.0 mi NE 5.8 mph - 0.00 in   Overcast
2:55 AM 33.8 °F 30.8 °F 33.8 °F 100% 30.25 in 10.0 mi NE 3.5 mph - 0.00 in   Overcast
3:15 AM 33.8 °F 30.8 °F 33.8 °F 100% 30.25 in 10.0 mi ENE 3.5 mph - 0.00 in   Overcast
3:35 AM 33.8 °F 29.6 °F 33.8 °F 100% 30.25 in 10.0 mi NE 4.6 mph - 0.00 in   Overcast
3:55 AM 33.8 °F 29.6 °F 33.8 °F 100% 30.25 in 10.0 mi NE 4.6 mph - 0.00 in   Overcast
4:15 AM 33.8 °F 29.6 °F 33.8 °F 100% 30.25 in 10.0 mi ENE 4.6 mph - 0.00 in   Overcast
4:40 AM 33.8 °F 30.8 °F 33.8 °F 100% 30.24 in 10.0 mi East 3.5 mph - 0.00 in   Overcast
4:55 AM 33.8 °F 30.8 °F 33.8 °F 100% 30.23 in 10.0 mi ESE 3.5 mph - 0.00 in   Mostly Cloudy
5:15 AM 33.8 °F 28.6 °F 33.8 °F 100% 30.23 in 10.0 mi NE 5.8 mph - 0.00 in   Mostly Cloudy
5:35 AM 33.8 °F 29.6 °F 33.8 °F 100% 30.23 in 10.0 mi NE 4.6 mph - 0.00 in   Overcast
5:55 AM 35.6 °F 30.7 °F 33.8 °F 93% 30.23 in 10.0 mi NE 5.8 mph - 0.00 in   Overcast
6:15 AM 35.6 °F 30.7 °F 33.8 °F 93% 30.23 in 10.0 mi NE 5.8 mph - 0.00 in   Overcast
6:35 AM 33.8 °F 29.6 °F 33.8 °F 100% 30.22 in 10.0 mi ENE 4.6 mph - 0.00 in   Mostly Cloudy
6:55 AM 33.8 °F 27.7 °F 33.8 °F 100% 30.22 in 5.0 mi East 6.9 mph - 0.00 in   Overcast
7:15 AM 33.8 °F 27.7 °F 33.8 °F 100% 30.22 in 2.5 mi East 6.9 mph - 0.00 in   Overcast
7:35 AM 33.8 °F 28.6 °F 33.8 °F 100% 30.21 in 3.0 mi ENE 5.8 mph - 0.00 in   Overcast
7:55 AM 33.8 °F 29.6 °F 33.8 °F 100% 30.21 in 3.0 mi ENE 4.6 mph - 0.00 in   Overcast
8:15 AM 33.8 °F 29.6 °F 33.8 °F 100% 30.21 in 2.0 mi East 4.6 mph - 0.00 in   Overcast
8:35 AM 33.8 °F 30.8 °F 33.8 °F 100% 30.21 in 1.8 mi ENE 3.5 mph - 0.00 in   Overcast
8:55 AM 33.8 °F 30.8 °F 33.8 °F 100% 30.21 in 1.0 mi East 3.5 mph - 0.01 in   Overcast
9:20 AM 33.8 °F 29.6 °F 33.8 °F 100% 30.21 in 0.8 mi East 4.6 mph - 0.01 in   Overcast
9:35 AM 33.8 °F 29.6 °F 33.8 °F 100% 30.21 in 0.8 mi ENE 4.6 mph - 0.01 in   Overcast
9:55 AM 33.8 °F 28.6 °F 33.8 °F 100% 30.22 in 0.8 mi ENE 5.8 mph - 0.02 in   Overcast
10:15 AM 33.8 °F 27.7 °F 33.8 °F 100% 30.22 in 1.2 mi ENE 6.9 mph - 0.01 in   Overcast
10:35 AM 33.8 °F 27.7 °F 33.8 °F 100% 30.22 in 1.5 mi East 6.9 mph - 0.01 in   Overcast
10:55 AM 33.8 °F 28.6 °F 33.8 °F 100% 30.22 in 1.8 mi ENE 5.8 mph - 0.01 in   Overcast
11:15 AM 33.8 °F 27.7 °F 33.8 °F 100% 30.21 in 1.8 mi ENE 6.9 mph - 0.00 in   Overcast
11:35 AM 33.8 °F 28.6 °F 33.8 °F 100% 30.21 in 2.0 mi East 5.8 mph - 0.00 in   Overcast
11:55 AM 33.8 °F 28.6 °F 33.8 °F 100% 30.21 in 3.0 mi East 5.8 mph - 0.01 in   Overcast
12:15 PM 33.8 °F 29.6 °F 33.8 °F 100% 30.20 in 4.0 mi East 4.6 mph - 0.00 in   Overcast
12:35 PM 35.6 °F 31.7 °F 35.6 °F 100% 30.19 in 8.0 mi East 4.6 mph - 0.00 in   Overcast
12:55 PM 35.6 °F 31.7 °F 35.6 °F 100% 30.19 in 7.0 mi East 4.6 mph - 0.00 in   Overcast
1:15 PM 35.6 °F 31.7 °F 35.6 °F 100% 30.18 in 7.0 mi East 4.6 mph - 0.00 in   Overcast
1:35 PM 35.6 °F 32.8 °F 35.6 °F 100% 30.18 in 7.0 mi ESE 3.5 mph - 0.00 in   Overcast
1:55 PM 35.6 °F 32.8 °F 35.6 °F 100% 30.17 in 7.0 mi ESE 3.5 mph - 0.01 in   Overcast
2:15 PM 35.6 °F 31.7 °F 35.6 °F 100% 30.16 in 5.0 mi ESE 4.6 mph - 0.00 in   Overcast
2:35 PM 35.6 °F 32.8 °F 35.6 °F 100% 30.16 in 8.0 mi ESE 3.5 mph - 0.01 in   Overcast
2:55 PM 35.6 °F 32.8 °F 35.6 °F 100% 30.15 in 6.0 mi ESE 3.5 mph - 0.01 in   Overcast
3:15 PM 35.6 °F 30.7 °F 35.6 °F 100% 30.15 in 5.0 mi East 5.8 mph - 0.01 in   Overcast
3:35 PM 35.6 °F 31.7 °F 35.6 °F 100% 30.14 in 5.0 mi ESE 4.6 mph - 0.01 in   Overcast
3:55 PM 35.6 °F 31.7 °F 35.6 °F 100% 30.14 in 7.0 mi ESE 4.6 mph - 0.03 in   Overcast
4:15 PM 35.6 °F 30.7 °F 35.6 °F 100% 30.13 in 7.0 mi ESE 5.8 mph - 0.00 in   Overcast
4:35 PM 35.6 °F 32.8 °F 35.6 °F 100% 30.13 in 7.0 mi SE 3.5 mph - 0.01 in   Overcast
4:55 PM 35.6 °F 30.7 °F 35.6 °F 100% 30.12 in 7.0 mi SE 5.8 mph - 0.01 in   Overcast
5:15 PM 35.6 °F 31.7 °F 35.6 °F 100% 30.12 in 7.0 mi SE 4.6 mph - 0.01 in   Overcast
5:40 PM 35.6 °F 31.7 °F 35.6 °F 100% 30.11 in 5.0 mi SE 4.6 mph - 0.02 in   Overcast
5:55 PM 35.6 °F 29.2 °F 35.6 °F 100% 30.11 in 5.0 mi SE 8.1 mph - 0.03 in   Overcast
6:15 PM 35.6 °F 29.9 °F 35.6 °F 100% 30.10 in 6.0 mi ESE 6.9 mph - 0.01 in   Overcast
6:35 PM 35.6 °F 31.7 °F 35.6 °F 100% 30.10 in 5.0 mi East 4.6 mph - 0.02 in   Overcast
6:55 PM 33.8 °F 28.6 °F 33.8 °F 100% 30.09 in 4.0 mi ENE 5.8 mph - 0.03 in   Overcast
7:15 PM 33.8 °F 28.6 °F 33.8 °F 100% 30.09 in 5.0 mi ENE 5.8 mph - 0.01 in   Overcast
7:35 PM 33.8 °F 27.0 °F 33.8 °F 100% 30.09 in 4.0 mi East 8.1 mph - 0.02 in   Overcast
7:55 PM 33.8 °F 27.7 °F 33.8 °F 100% 30.08 in 5.0 mi East 6.9 mph - 0.03 in   Overcast
8:15 PM 33.8 °F 27.7 °F 33.8 °F 100% 30.07 in 5.0 mi East 6.9 mph - 0.00 in   Overcast
8:35 PM 33.8 °F 27.7 °F 33.8 °F 100% 30.07 in 7.0 mi East 6.9 mph - 0.02 in   Overcast
8:55 PM 33.8 °F 27.7 °F 33.8 °F 100% 30.08 in 6.0 mi East 6.9 mph - 0.03 in   Overcast
9:20 PM 33.8 °F 28.6 °F 33.8 °F 100% 30.08 in 4.0 mi East 5.8 mph - 0.02 in   Overcast
9:35 PM 33.8 °F 27.7 °F 33.8 °F 100% 30.07 in 5.0 mi East 6.9 mph - 0.04 in   Overcast
9:55 PM 33.8 °F 27.7 °F 33.8 °F 100% 30.07 in 5.0 mi ENE 6.9 mph - 0.05 in   Overcast
10:15 PM 33.8 °F 29.6 °F 33.8 °F 100% 30.06 in 5.0 mi East 4.6 mph - 0.01 in   Overcast
10:35 PM 33.8 °F 28.6 °F 33.8 °F 100% 30.06 in 5.0 mi ENE 5.8 mph - 0.03 in   Overcast
10:55 PM 33.8 °F 27.0 °F 33.8 °F 100% 30.06 in 5.0 mi ENE 8.1 mph - 0.05 in   Overcast
11:15 PM 33.8 °F 26.4 °F 33.8 °F 100% 30.06 in 6.0 mi ENE 9.2 mph - 0.01 in   Overcast
11:35 PM 33.8 °F 27.0 °F 33.8 °F 100% 30.06 in 7.0 mi ENE 8.1 mph - 0.02 in   Overcast
11:55 PM 33.8 °F 27.0 °F 33.8 °F 100% 30.06 in 7.0 mi ENE 8.1 mph - 0.04 in   Overcast